This is the latest recevied weather packets stored in our database for station/object KA1STV. If no packets are shown the sender has not sent any weather packets the latest 10 day(s).
| Time | Temp. | Humidity | Pressure | Rain* | Wind** | Luminosity | Snow |
|---|---|---|---|---|---|---|---|
| 1777823514 | 10° C | 48% | 1007.5 hPa | 0 mm | - | 227 W/m² | - |
| 1777823210 | 10° C | 48% | 1007.4 hPa | 0 mm | - | 211 W/m² | - |
| 1777822908 | 10° C | 48% | 1007.6 hPa | 0 mm | - | 369 W/m² | - |
| 1777822606 | 10° C | 51% | 1007.4 hPa | 0 mm | - | 196 W/m² | - |
| 1777822303 | 9.44° C | 49% | 1007.5 hPa | 0 mm | - | 227 W/m² | - |
| 1777822001 | 10° C | 50% | 1007.6 hPa | 0 mm | - | 184 W/m² | - |
| 1777821698 | 10.56° C | 49% | 1007.6 hPa | 0 mm | - | 186 W/m² | - |
| 1777821396 | 10° C | 52% | 1007.6 hPa | 0 mm | - | 646 W/m² | - |
| 1777821092 | 9.44° C | 52% | 1007.7 hPa | 0 mm | - | 179 W/m² | - |
| 1777820790 | 11.11° C | 48% | 1007.7 hPa | 0 mm | - | 214 W/m² | - |
| 1777820486 | 10.56° C | 46% | 1007.5 hPa | 0 mm | - | 728 W/m² | - |
| 1777820183 | 10.56° C | 49% | 1007.6 hPa | 0 mm | - | 832 W/m² | - |
| 1777819880 | 10.56° C | 50% | 1007.6 hPa | 0 mm | - | 615 W/m² | - |
| 1777819577 | 10° C | 48% | 1007.6 hPa | 0 mm | - | 867 W/m² | - |
| 1777819275 | 10° C | 50% | 1007.8 hPa | 0 mm | - | 201 W/m² | - |
| 1777818971 | 10° C | 49% | 1007.7 hPa | 0 mm | - | 775 W/m² | - |
| 1777818668 | 10.56° C | 50% | 1008 hPa | 0 mm | - | 724 W/m² | - |
| 1777818365 | 10° C | 52% | 1007.8 hPa | 0 mm | - | 491 W/m² | - |
| 1777818062 | 10° C | 53% | 1007.9 hPa | 0 mm | - | 421 W/m² | - |
| 1777817758 | 10° C | 56% | 1008 hPa | 0 mm | - | 668 W/m² | - |
| 1777817456 | 8.89° C | 54% | 1007.9 hPa | 0 mm | - | 448 W/m² | - |
| 1777817151 | 9.44° C | 55% | 1007.8 hPa | 0 mm | - | 311 W/m² | - |
| 1777816850 | 9.44° C | 56% | 1008 hPa | 0 mm | - | 357 W/m² | - |
| 1777816547 | 8.89° C | 59% | 1008 hPa | 0 mm | - | 362 W/m² | - |
| 1777816244 | 8.33° C | 60% | 1008 hPa | 0 mm | - | 409 W/m² | - |
* Rain latest hour (hover to see other rain measurements)
** Current wind speed in m/s (hover to see current wind gust speed)